Погода в Мичуринске

Погода в Мичуринске : погода сейчас, прогноз погоды и архив. Всё, что Вы хотите узнать о погоде в Мичуринске!

Хотите узнать прогноз погоды в Мичуринске? Тогда Вам сюда: Погода в Мичуринске

Поиск расширенной информации на нашем сайте:

Другие новости

Новости СМИ2

Главная страница сайта

Новости сайта

03.07.2017

Напоминаем, что на нашем специализированном сайте Метеоцентр.Азия вы можете получить высокодетализированные автоматические прогнозы погоды по пунктам России, СНГ и мира в авиационном формате (включающие направление и скорость ветра, видимость, явления погоды, количество и форму облачности, нижнюю и верхнюю границу облачности).

Рекомендуем: Купить женские велосипеды giant 2014.

Погода в Мичуринске - сегодня

Время (UTC), дата Ветер
(°,м/с) 
Видим.   Явления Облачность Т
(°С)
Тd
(°С)
f(%) Тe
(°С)
Pmin
(гПа)
dP
(гПа)
Po
(мм)
O2
(г/м3)
Тmin Tmax R s Состояние
почвы
00 15.04.18 тихо ()   20000 м    ясно 
+1.2 -5.5 61 +1  1030.3  -0.1  758  305           
06 15.04.18 230 (ЮЗ) 20000 м    4/0 
+7.9 -2.2 49 +8  1028.8  -0.5  757  297           
09 15.04.18 230 (ЮЗ) 20000 м    3/0 верхняя 
[Ci fib]
+11.8 -4.4 32 +11  1027.3  -1.2  756  293           
12 15.04.18 230 (ЮЗ) 20000 м    ясно 
+13.6 -5.4 26 +14  1025  -2.2  754  290           
18 15.04.18 тихо ()   20000 м    ясно 
+8.9 -4.1 40 +9  1022.8  -0.3  753  294           
21 15.04.18 250 (З) 20000 м    ясно 
+6.5 -2.9 51 +6  1022.3  -0.7  752  296           
00 16.04.18 тихо ()   20000 м    ясно 
+3.2 -3.2 63 +3  1021.8  -0.7  752  300           
06 16.04.18 270 (З) 20000 м    8/0 верхняя 
[Ci fib]
+11.4 -1.2 42 +12  1020.8  751  291           
09 16.04.18 230 (ЮЗ) 20000 м    8/0 верхняя 
[Ci fib]
+17.6 -2.2 26 +18  1020.2  -0.3  751  285           
12 16.04.18 320 (СЗ) 20000 м    6/6 1000 м 
[Cu hum]
+19.5 -3.3 21 +21  1018.9  -1  750  283           
18 16.04.18 250 (З) 20000 м    ясно 
+13.1 -0.9 38 +14  1018.2  0.4  749  288           
00 17.04.18 тихо ()   20000 м    10/10 600 м 
[Sc]
+9.4 +2.7 63 +9  1017.7  -0.4  749  291           
06 17.04.18 тихо ()   20000 м    8/6 600 м верхняя 
[Cu Sc|Ci fib]
+13.7 +5.1 56 +14  1017.6  0.4  749  287           
09 17.04.18 250 (З) 20000 м    3/1 1000 м верхняя 
[Cu hum|Ci fib]
+20.1 +4.6 36 +20  1016.7  -0.5  749  280           
12 17.04.18 250 (З) 20000 м    8/8 600 м 
[Cu Sc]
+22.3 +3 28 +22  1016  -0.6  748  278           
18 17.04.18 250 (З) 20000 м    9/9 600 м 
[Sc]
+16.2 +5.1 48 +17  1015.6  0.1  748  284           
21 17.04.18 тихо ()   20000 м    9/9 600 м 
[Sc]
+13.8 +4.8 55 +14  1015.3  -0.4  747  286           
00 18.04.18 250 (З) 20000 м    10/10 600 м 
[Sc]
+13.9 +5 55 +14  1014.9  -0.4  747  286           
06 18.04.18 230 (ЮЗ) 20000 м    10/10 600 м 
[Sc]
+12.1 +0.9 46 +12  1012.4  -1.3  745  287  +11         
09 18.04.18 230 (ЮЗ) 4000 м  слаб. ливневой дождь  10/10 600 м кучево-дожд. 
[Cb cap]
+11 +4.6 65 +11  1011.5  -1  744  288           
18 18.04.18 270 (З) 4000 м  слаб. ливневой дождь  10/10 600 м кучево-дожд. 
[Cb cap]
+7.7 +5.5 86 +8  1008  742  290           
03 19.04.18 250 (З) 4000 м  слаб. ливневой дождь  10/10 600 м кучево-дожд. 
[Cb cap]
+4.9 +3 87 +5  1000.8  -3.4  736  291  +4.9      влажная 
06 19.04.18 250 (З) 4000 м  слаб. ливневой дождь  10/10 600 м кучево-дожд. 
[Cb cap]
+5.7 +3.8 88 +5  998  -2.6  734  289           
09 19.04.18 270 (З) 4000 м  слаб. ливневой дождь  10/10 600 м кучево-дожд. 
[Cb cap]
+7.8 +6.1 89 +8  996.3  -1.5  733  286           
15 19.04.18 020 (С) 4{10}  4000 м  дымка{ливн. осадки}  10/10 300 м кучево-дожд. 
[Cb cap]
+7.6 +4 78 +6  998.4  1.7  735  287    +8.3  11     
Время (UTC), дата Ветер
(°,м/с) 
Видим.   Явления Облачность Т
(°С)
Тd
(°С)
f(%) Тe
(°С)
Pmin
(гПа)
dP
(гПа)
Po
(мм)
O2
(г/м3)
Тmin Tmax R s Состояние
почвы

Для получения пояснительной информации подведите курсор к названию столбца.

ПОГОДА в Мичуринске - архив

Всё, что Вы хотите узнать о погоде в Мичуринске - удобно и подробно!

Выберите нужную дату (начиная с 1 января 2015* года) и нажмите кнопку "Найти".
Будут отображены архивные сводки погоды по пункту Мичуринск, начиная с указанной даты.


Отображать данные в формате CSV (для использования в таблицах Excel)


Внимание! Наш архив погоды предназначен исключительно для личного некоммерческого использования в познавательных целях. Если Вам необходимы официальные справки о состоянии погоды (для производственных, юридических, коммерческих и т.п. целей), обращайтесь в органы Росгидромета.

*Примечание: данная дата относится к архиву по метеостанциям СССР (Россия, СНГ, Балтия).
Архив по метеостанциям Зарубежной Европы и Азии (кроме Китая) хранится 10 дней, по другим регионам земного шара (Китай, Африка, Америка, Австралия, Океания) - 1 день.

Мичуринск - район местоположения метеостанции


Название, широта, долгота, высота метеостанции:
Мичуринск 52.9°ш. 40.5°д. 158 м над ур. моря [Российская Федерация]

Дополнительная информация

В oтличие oт бoльшинства пoгoдных сайтoв мы публикуем пoдрoбную метеoинфoрмацию в детальнoм прoфессиoнальнoм фoрмате.

Характеристики температуры и влажнoсти вoздуха измеряются на высoте 2 м в тени вдали oт зданий и деревьев.
Скoрoсть ветра измеряется на высoте 10 м (на урoвне рoста челoвека скoрoсть ветра ниже в 1.5-2 раза). Если метеoстанция нахoдится в гoрoде или в лесу, тo скoрoсть ветра занижена на 2-4 м/с пo сравнению с oткрытым местoм. Скoрoсть ветра над акватoриями крупных рек и oзёр, а также на вершинах хoлмoв на 2-5 м/с выше, чем в oбычных услoвиях.
Атмoсфернoе давление в разных тoчках местнoсти мoжет значительнo oтличаться oт давления на метеoстанции, в зависимoсти oт услoвий рельефа (при пoдъёме на 10 м давление пoнижается примернo на 1 мм рт.ст.).